{"data":{"norad_id":69991,"intl_designator":"2026-159S","name":"STARLINK-38042","alt_names":[],"object_type":"PAYLOAD","status":"ACTIVE","operator":null,"country":"US","launch_date":"2026-07-11","launch_site_code":"AFWTR","launch_vehicle":null,"mission":null,"orbit_class":"UNKNOWN","rcs_meters":null,"size_class":null,"mass_kg":null,"dimensions":null,"purposes":["comms"],"wikipedia_slug":null,"has_3d_model":false,"image_url":null,"decayed_at":null,"tle_current":{"epoch":"2026-09-19T20:01:25.095936Z","epoch_age_seconds":75301,"freshness":"FRESH","line1":"1 69991U 26159S   26262.83431824  .00018657  00000+0  34404-3 0  9992","line2":"2 69991  97.2857 104.6384 0000489 161.7813 198.3456 15.49177691 12344","mean_motion":15.49177691,"eccentricity":4.89e-5,"inclination_deg":97.2857,"raan_deg":104.6384,"arg_perigee_deg":161.7813,"mean_anomaly_deg":198.3456,"bstar":0.00034404,"rev_number":1234,"period_min":92.952539167439,"perigee_km":418.79796174846,"apogee_km":419.4627344951,"semimajor_km":6797.2673481218,"source":"CELESTRAK","updated_at":"2026-09-20T09:00:44.331258Z"}}}